Regional Weather Roundup
Issued by NWS

Home | Current Version | Previous Version | Text Only | Print | Product List | Glossary On
Versions: 1 2 3 4 5 6 7 8 9 10 11 12 13 14 15 16 17 18 19 20 21 22 23 24 25 26 27 28 29 30 31 32 33 34 35 36 37 38 39 40 41 42 43 44 45 46 47 48 49 50
000
ASUS45 KBOU 101810
RWRCO

WEATHER ROUNDUP FOR COLORADO
NATIONAL WEATHER SERVICE DENVER/BOULDER CO
1200 PM MDT THU JUL 10 2014

NOTE: "FAIR" INDICATES FEW OR NO CLOUDS BELOW 12000 FEET WITH NO
SIGNIFICANT WEATHER AND/OR OBSTRUCTIONS TO VISIBILITY.

COZ001>005-013-030-031-101900-
...NORTHWEST COLORADO...

CITY           SKY/WX    TMP DP  RH WIND       PRES   REMARKS
CRAIG          PTSUNNY   75  50  41 W14       30.17F
HAYDEN         MOSUNNY   79  46  31 N7        30.19F
MEEKER         MOSUNNY   82  48  30 VRB5      30.17F
MOUNT WERNER   MOSUNNY   63  36  36 S3        30.52S
STEAMBOAT SPGS MOSUNNY   77  45  31 SW6       30.22F
WALDEN         MOSUNNY   72  43  35 SW3       30.30S
$$

COZ006>008-011-101900-
...WEST CENTRAL VALLEYS...

CITY           SKY/WX    TMP DP  RH WIND       PRES   REMARKS
GRAND JUNCTION SUNNY     85  49  28 W8        30.08F
MONTROSE       SUNNY     85  48  27 N5        30.15F
EAGLE          MOSUNNY   81  46  30 NW7       30.21F
RIFLE          MOSUNNY   82  47  29 NW7       30.12F
DELTA          SUNNY     87  46  23 NE6       30.11F
NUCLA          MOSUNNY   81  46  30 NW5       30.21F
$$

COZ017>023-064>068-101900-
...SOUTHWEST COLORADO...

CITY           SKY/WX    TMP DP  RH WIND       PRES   REMARKS
DURANGO        SUNNY     79  49  34 SW6       30.23F
CORTEZ         SUNNY     83  51  33 SW8       30.18F
PAGOSA SPRINGS SUNNY     75  41  29 S6        30.30F
TELLURIDE      MOSUNNY   72  43  35 W8        30.38F
WOLF CREEK PAS NOT AVBL
$$

COZ009-010-012-014-032>034-037-058>063-101900-
...CENTRAL COLORADO...

CITY           SKY/WX    TMP DP  RH WIND       PRES   REMARKS
ASPEN          SUNNY     79  42  26 VRB6      30.28F
BUENA VISTA    SUNNY     79  33  18 SE5       30.26F
COPPER MTN     PTSUNNY   61  36  39 W8        30.62S
BERTHOUD PASS  FAIR      52  37  58 NE3       30.67S
COTTONWOOD PAS MOSUNNY   77  32  19 SE9       30.43F
GUNNISON       NOT AVBL
KREMMLING      SUNNY     79  36  21 SW3       30.26F
LEADVILLE      SUNNY     71  34  25 NW10      30.41F
MONARCH PASS   SUNNY     59  41  51 SW12G21   30.72S
SALIDA         SUNNY     82  35  18 N5        30.31F
SUNLIGHT       PTSUNNY   64  46  52 S3        30.54F
WILKERSON PASS MOSUNNY   63  32  31 NE5       30.58F
$$

COZ069>075-101900-
...SAN LUIS VALLEY/SANGRE DE CRISTO MOUNTAINS...

CITY           SKY/WX    TMP DP  RH WIND       PRES   REMARKS
ALAMOSA        SUNNY     78  45  30 VRB7      30.28F
LA VETA PASS   SUNNY     66  43  42 W5        30.48S
SAGUACHE       NOT AVBL
$$

COZ035-036-038>040-101900-
...NORTHERN COLORADO FRONT RANGE...

CITY           SKY/WX    TMP DP  RH WIND       PRES   REMARKS
DENVER INTL AP MOSUNNY   91  41  17 E8        30.06F
DMNS CITY PARK   N/A     90  41  18 SE5G13    30.05F
AURORA         MOSUNNY   87  43  21 VRB6      30.09F
FRONT RANGE AP MOSUNNY   90  43  19 E9        30.08
ERIE MUNI ARPT SUNNY     91  35  14 SE8       30.04S
BOULDER MUN AP SUNNY     91  41  17 SE6       30.04F
CENTENNIAL     MOSUNNY   89  37  16 N6        30.10F
BROOMFIELD     MOSUNNY   90  37  15 E7        30.08F
FORT COLLINS   SUNNY     88  52  29 SE9       30.02F
LONGMONT       SUNNY     94  43  17 SE7       30.04F
$$

COZ041-046-047-076>085-087-088-101900-
...PIKES PEAK/PALMER DIVIDE AND SOUTHERN FOOTHILLS...

CITY           SKY/WX    TMP DP  RH WIND       PRES   REMARKS
COLO. SPRINGS  MOSUNNY   84  46  26 SE12      30.14F
A. F. ACADEMY  MOSUNNY   87  39  18 SE8       30.15F
ELLICOTT       NOT AVBL
FALCON         SUNNY     85  44  23 S9G17     30.20F
FORT CARSON    MOSUNNY   84  48  27 E8        30.11F
LIMON          SUNNY     85  51  31 S10G16    30.08F
MONUMENT HILL  SUNNY     82  34  17 NE8       30.20S
TRINIDAD       SUNNY     88  40  18 NE8       30.10F
$$

COZ042>045-048>051-090-091-101900-
...NORTHEAST COLORADO...

CITY           SKY/WX    TMP DP  RH WIND       PRES   REMARKS
GREELEY ARPT   SUNNY     82  57  42 E5        30.03F
AKRON          SUNNY     86  56  35 S13G25    30.03F
BURLINGTON     SUNNY     82  61  48 S15G21    30.02F
WRAY           SUNNY     90  54  29 S8        29.98F
STERLING       SUNNY     90  61  37 S8        29.97S
HOLYOKE        SUNNY     86  61  42 S12G21    29.97F
FORT MORGAN    SUNNY     87  51  28 SE8       30.02S
$$

COZ086-089-092>099-101900-
...SOUTHEAST COLORADO...

CITY           SKY/WX    TMP DP  RH WIND       PRES   REMARKS
PUEBLO         SUNNY     88  48  25 VRB7      30.02F
LA JUNTA       SUNNY     90  47  22 SE6       29.99F
LAMAR          SUNNY     95  47  19 S12       29.94F
SPRINGFIELD      N/A     93  47  20 S14G22    30.00F
$$



USA.gov is the U.S. government's official web portal to all federal, state and local government web resources and services.